Alkor — DBND — position and weather

sailwx.info

Track history (hours):
 
Tides and Currents Weather Stations Pressure Air Temp Water Temp Dewpoint Dewpoint Depression Visibility Wind Speed Wind Dir Waves Ship Positions

Oceanographic research ship Alkor (Germany)

Ship's website: http://www.briese.de/

Detailed information on ship capabilities available from University of Delaware's Ocean Information Center.

Last reported at 2017-Jan-28 07:15 UTC. Time now 2017-Feb-22 17:31 UTC.
Position N 54°23' E 010°10'.
Warning: this ship's position is 25 days out of date.

Length 55 m; draft 4.2 m.

Type: Ship. MMSI: 211216512.

Date/timePositionNaut miles runAvg speedWind from/ knotsBaromVisibWave heightAir tempDewpointWater temp
2017-Jan-28 07:15N 54°23' E 010°10'0 0.0
2017-Jan-27 01:15N 54°23' E 010°10'  
2017-Jan-24 11:00N 54°24' E 010°12'0 0.0 240 / 81028.0 4.3
2017-Jan-24 10:00N 54°24' E 010°12'0 0.0 230 / 61028.0 4.3
2017-Jan-24 09:00N 54°24' E 010°12'0 0.0 240 / 61027.3 1.2 1.2 4.1
2017-Jan-24 08:00N 54°24' E 010°12'0 0.0 240 / 61027.0 1.3 1.3 4.1
2017-Jan-24 07:00N 54°24' E 010°12'0 0.0 250 / 81026.6 1.1 1.1 4.0
2017-Jan-24 06:00N 54°24' E 010°12'0 0.0 240 / 61026.1 1.2 1.2 4.2
2017-Jan-24 05:00N 54°24' E 010°12'0 0.0 240 / 61025.5 1.3 1.3 4.3
2017-Jan-24 04:00N 54°24' E 010°12'0 0.0 220 / 61025.2 1.1 1.1 4.3
2017-Jan-24 03:00N 54°24' E 010°12'0 0.0 220 / 61025.0 1.0 1.0 4.6
2017-Jan-24 02:00N 54°24' E 010°12'0 0.0 210 / 61025.0 1.1 1.1 4.6
2017-Jan-24 01:00N 54°24' E 010°12'0 0.0 220 / 81025.1 0.9 0.9 4.6
2017-Jan-24 00:00N 54°24' E 010°12'0 0.0 240 / 101025.1 0.8 0.8 4.6
2017-Jan-23 23:00N 54°24' E 010°12'0 0.0 230 / 81024.8 0.9 0.9 4.5
2017-Jan-23 22:00N 54°24' E 010°12'0 0.0 230 / 101024.9 1.1 1.1 4.7
2017-Jan-23 21:00N 54°24' E 010°12'0 0.0 230 / 61024.9 1.5 1.5 4.7
2017-Jan-23 20:00N 54°24' E 010°12'0 0.0 230 / 61024.7 1.5 1.1 4.9
2017-Jan-23 19:00N 54°24' E 010°12'0 0.0 240 / 81024.6 1.5 1.0 4.9
2017-Jan-23 18:00N 54°24' E 010°12'0 0.0 220 / 81024.2 1.3 0.8 4.6
2017-Jan-23 17:00N 54°24' E 010°12'0 0.0 220 / 81024.4 1.7 1.2 4.4
2017-Jan-23 16:00N 54°24' E 010°12'0 0.0 230 / 81024.5 1.6 1.0 4.5
2017-Jan-23 15:00N 54°24' E 010°12'0 0.0 230 / 61024.6 1.7 1.1 4.4
2017-Jan-23 14:00N 54°24' E 010°12'0 0.0 230 / 61024.8 1.2 0.6 4.5
2017-Jan-23 13:00N 54°24' E 010°12'0 0.0 250 / 101024.9 0.9-0.1 4.6
2017-Jan-23 12:00N 54°24' E 010°12'0 0.0 240 / 81025.3 0.4-0.4 4.7
2017-Jan-23 11:00N 54°24' E 010°12'0 0.0 240 / 81025.6 0.5-0.5 4.5
2017-Jan-23 10:00N 54°24' E 010°12'0 0.0 230 / 61025.5 0.4-0.4 4.3
2017-Jan-23 09:00N 54°24' E 010°12'0 0.0 230 / 41025.4 -0.0-0.7 3.8
2017-Jan-23 08:00N 54°24' E 010°12'7 6.9 260 / 61025.4 -0.3-0.9 3.5
2017-Jan-23 07:00N 54°18' E 010°06'0 0.0 1025.4 -0.4-0.9 4.5
2017-Jan-23 06:00N 54°18' E 010°06'2 0.7 320 / 41025.8 -0.4-0.9 4.8
2017-Jan-23 02:12N 54°20' E 010°09'0 0.0
2017-Jan-23 01:21N 54°20' E 010°09'0 0.0
2017-Jan-22 22:15N 54°20' E 010°09'0 0.0
2017-Jan-22 21:27N 54°20' E 010°09'0 0.0
2017-Jan-22 20:15N 54°20' E 010°09'0 0.0
2017-Jan-22 14:24N 54°20' E 010°09'0 0.0
2017-Jan-22 05:33N 54°20' E 010°09'0 0.0
2017-Jan-22 04:21N 54°20' E 010°09'0 0.0
2017-Jan-22 03:33N 54°20' E 010°09'  
Track history (hours):
 
Tides and Currents Weather Stations Pressure Air Temp Water Temp Dewpoint Dewpoint Depression Visibility Wind Speed Wind Dir Waves Ship Positions

Oceanographic research ship Alkor (Germany)

Ship's website: http://www.briese.de/

Detailed information on ship capabilities available from University of Delaware's Ocean Information Center.

Last reported at 2017-Jan-28 07:15 UTC. Time now 2017-Feb-22 17:31 UTC.
Position N 54°23' E 010°10'.
Warning: this ship's position is 25 days out of date.

Length 55 m; draft 4.2 m.

Type: Ship. MMSI: 211216512.

Date/timePositionNaut miles runAvg speedWind from/ knotsBaromVisibWave heightAir tempDewpointWater temp
2017-Jan-28 07:15N 54°23' E 010°10'0 0.0
2017-Jan-27 01:15N 54°23' E 010°10'  
2017-Jan-24 11:00N 54°24' E 010°12'0 0.0 240 / 81028.0 4.3
2017-Jan-24 10:00N 54°24' E 010°12'0 0.0 230 / 61028.0 4.3
2017-Jan-24 09:00N 54°24' E 010°12'0 0.0 240 / 61027.3 1.2 1.2 4.1
2017-Jan-24 08:00N 54°24' E 010°12'0 0.0 240 / 61027.0 1.3 1.3 4.1
2017-Jan-24 07:00N 54°24' E 010°12'0 0.0 250 / 81026.6 1.1 1.1 4.0
2017-Jan-24 06:00N 54°24' E 010°12'0 0.0 240 / 61026.1 1.2 1.2 4.2
2017-Jan-24 05:00N 54°24' E 010°12'0 0.0 240 / 61025.5 1.3 1.3 4.3
2017-Jan-24 04:00N 54°24' E 010°12'0 0.0 220 / 61025.2 1.1 1.1 4.3
2017-Jan-24 03:00N 54°24' E 010°12'0 0.0 220 / 61025.0 1.0 1.0 4.6
2017-Jan-24 02:00N 54°24' E 010°12'0 0.0 210 / 61025.0 1.1 1.1 4.6
2017-Jan-24 01:00N 54°24' E 010°12'0 0.0 220 / 81025.1 0.9 0.9 4.6
2017-Jan-24 00:00N 54°24' E 010°12'0 0.0 240 / 101025.1 0.8 0.8 4.6
2017-Jan-23 23:00N 54°24' E 010°12'0 0.0 230 / 81024.8 0.9 0.9 4.5
2017-Jan-23 22:00N 54°24' E 010°12'0 0.0 230 / 101024.9 1.1 1.1 4.7
2017-Jan-23 21:00N 54°24' E 010°12'0 0.0 230 / 61024.9 1.5 1.5 4.7
2017-Jan-23 20:00N 54°24' E 010°12'0 0.0 230 / 61024.7 1.5 1.1 4.9
2017-Jan-23 19:00N 54°24' E 010°12'0 0.0 240 / 81024.6 1.5 1.0 4.9
2017-Jan-23 18:00N 54°24' E 010°12'0 0.0 220 / 81024.2 1.3 0.8 4.6
2017-Jan-23 17:00N 54°24' E 010°12'0 0.0 220 / 81024.4 1.7 1.2 4.4
2017-Jan-23 16:00N 54°24' E 010°12'0 0.0 230 / 81024.5 1.6 1.0 4.5
2017-Jan-23 15:00N 54°24' E 010°12'0 0.0 230 / 61024.6 1.7 1.1 4.4
2017-Jan-23 14:00N 54°24' E 010°12'0 0.0 230 / 61024.8 1.2 0.6 4.5
2017-Jan-23 13:00N 54°24' E 010°12'0 0.0 250 / 101024.9 0.9-0.1 4.6
2017-Jan-23 12:00N 54°24' E 010°12'0 0.0 240 / 81025.3 0.4-0.4 4.7
2017-Jan-23 11:00N 54°24' E 010°12'0 0.0 240 / 81025.6 0.5-0.5 4.5
2017-Jan-23 10:00N 54°24' E 010°12'0 0.0 230 / 61025.5 0.4-0.4 4.3
2017-Jan-23 09:00N 54°24' E 010°12'0 0.0 230 / 41025.4 -0.0-0.7 3.8
2017-Jan-23 08:00N 54°24' E 010°12'7 6.9 260 / 61025.4 -0.3-0.9 3.5
2017-Jan-23 07:00N 54°18' E 010°06'0 0.0 1025.4 -0.4-0.9 4.5
2017-Jan-23 06:00N 54°18' E 010°06'2 0.7 320 / 41025.8 -0.4-0.9 4.8
2017-Jan-23 02:12N 54°20' E 010°09'0 0.0
2017-Jan-23 01:21N 54°20' E 010°09'0 0.0
2017-Jan-22 22:15N 54°20' E 010°09'0 0.0
2017-Jan-22 21:27N 54°20' E 010°09'0 0.0
2017-Jan-22 20:15N 54°20' E 010°09'0 0.0
2017-Jan-22 14:24N 54°20' E 010°09'0 0.0
2017-Jan-22 05:33N 54°20' E 010°09'0 0.0
2017-Jan-22 04:21N 54°20' E 010°09'0 0.0
2017-Jan-22 03:33N 54°20' E 010°09'  

Dump ship's entire track history